Theta_e
308 308 308 308 308 308 308 309 309 309 309 310 310 309 309 309 305 305 307 304 308 307 313 310 308 309 311 312 313 313 318 318 318 319 318 318 318 317 317 317 318 319 319 320 324
307 308 308 308 308 308 308 308 309 309 309 310 309 309 309 309 309 308 304 304 312 308 313 312 308 309 313 313 313 316 317 317 316 317 317 316 316 316 317 318 318 318 319 318 325
308 308 308 308 308 308 309 309 309 309 309 310 311 309 308 312 310 316 316 306 312 307 310 309 310 312 313 312 312 312 316 315 315 316 316 315 315 315 315 316 317 317 318 318 318
308 308 308 308 308 308 309 309 309 309 310 311 311 308 308 311 314 312 315 306 312 313 308 313 316 313 313 314 312 313 313 313 313 313 313 314 314 314 315 316 317 316 316 317 320
310 309 308 308 309 309 309 309 308 309 310 311 310 305 308 308 307 312 312 309 315 313 310 317 316 313 312 310 310 312 312 311 312 311 311 312 313 314 314 316 315 315 315 318 320
310 310 309 308 307 309 307 307 307 308 309 310 309 308 312 303 304 313 308 315 312 309 311 316 315 314 313 312 313 312 312 312 312 312 311 312 314 313 315 315 316 316 317 316 317
307 307 305 305 307 307 307 306 307 308 309 308 307 311 312 304 308 310 314 310 308 312 315 315 314 311 311 312 310 311 312 311 312 314 314 313 314 314 315 315 316 316 316 316 316
307 306 306 303 303 305 306 307 307 308 309 308 309 313 312 306 308 309 315 309 310 311 313 313 309 310 311 309 309 311 310 313 312 311 312 313 315 314 313 314 315 315 315 315 316
308 309 307 306 304 305 306 308 308 308 310 313 312 312 313 313 314 311 313 311 311 311 312 313 310 310 310 311 312 310 312 311 311 312 311 312 314 316 314 314 316 316 315 315 316
308 308 309 307 307 305 305 312 310 312 314 312 313 314 313 315 315 313 312 312 314 314 311 312 311 313 310 312 310 310 310 312 313 314 314 315 315 315 316 315 315 316 316 316 317
308 307 308 310 309 306 305 311 313 314 316 319 316 310 313 315 317 313 311 312 313 313 314 311 314 314 313 312 312 312 312 313 314 314 313 315 315 316 316 316 315 316 317 317 318
305 306 308 310 310 307 306 311 314 314 316 314 315 314 313 314 315 314 312 314 314 314 311 312 313 313 312 311 311 312 313 314 314 314 314 315 316 315 315 315 316 316 317 317 318
305 308 308 310 308 306 309 312 313 312 316 314 314 315 316 315 315 316 312 312 312 312 312 314 313 311 311 312 312 313 314 314 314 315 314 314 315 315 315 314 315 315 316 317 317
306 307 307 308 306 308 308 312 312 312 318 317 316 316 315 315 315 315 311 313 312 313 311 312 313 312 312 312 312 314 313 313 314 315 315 313 316 316 316 316 316 316 317 316 316
306 305 305 305 308 306 311 311 312 314 319 317 316 315 316 317 315 317 312 312 313 312 312 313 312 312 312 313 312 313 312 313 314 315 315 315 316 316 315 315 316 317 317 317 315
305 305 305 306 305 306 310 309 314 321 319 319 316 315 315 316 316 314 316 314 313 313 312 313 311 312 313 312 312 313 314 315 312 313 316 316 316 317 317 317 317 316 315 317 317
306 305 305 306 307 306 308 315 319 323 318 317 315 315 315 316 316 316 314 317 317 316 316 315 315 313 312 314 314 314 315 317 317 318 318 317 317 317 317 316 316 316 318 317 317
308 311 311 309 306 307 312 318 318 318 316 315 314 314 314 314 314 313 314 314 314 314 315 315 316 314 313 314 315 315 316 317 323 321 320 317 318 318 317 315 316 317 317 315 315
309 310 310 308 308 311 316 319 319 317 316 316 315 316 316 315 314 317 318 315 314 313 316 317 316 315 315 315 314 316 316 316 317 318 319 319 318 317 317 317 317 317 315 314 314
306 309 311 312 312 311 313 314 317 315 316 317 319 319 319 319 316 318 317 318 316 315 314 317 318 316 315 315 316 316 316 318 319 322 324 320 320 320 319 318 317 316 315 314 314
305 316 311 312 312 315 317 315 316 315 316 317 318 320 320 321 320 320 320 318 316 314 315 315 317 317 316 317 318 318 319 320 319 321 325 324 321 319 319 316 315 313 313 314 315
305 316 310 312 316 312 314 312 312 314 314 316 317 318 319 318 319 317 318 316 315 313 315 314 317 320 318 316 316 316 318 318 327 327 324 325 323 316 316 314 314 314 315 315 314
308 309 308 309 317 313 313 313 312 314 314 315 315 315 314 314 316 316 314 312 312 312 315 314 319 320 318 316 317 318 318 318 320 318 324 325 321 315 315 315 314 314 315 314 313
307 313 310 309 308 311 312 314 315 312 313 312 314 314 314 316 315 317 314 312 312 312 313 313 316 317 319 317 319 320 319 318 318 323 320 321 318 315 312 312 314 315 314 313 310
306 308 307 311 309 309 309 311 313 313 313 312 313 313 314 314 313 313 312 312 311 311 313 313 317 315 314 315 315 313 312 313 314 315 316 313 312 311 311 314 315 313 312 311 309
309 309 306 308 308 308 308 311 311 312 310 311 311 312 312 313 312 314 311 311 312 310 311 313 313 313 313 311 309 309 309 309 309 310 310 311 312 312 314 312 312 311 310 309 309
301 302 307 306 308 309 309 309 309 308 308 310 311 311 310 310 309 308 307 308 311 311 310 312 312 311 311 309 309 312 312 310 310 310 311 314 315 315 315 314 311 309 308 308 307
Wind_Speed
14 14 13 12 12 11 11 11 11 11 11 11 11 11 11 12 13 7 7 7 4 8 8 7 5 6 4 3 3 2 3 6 6 6 3 3 2 3 4 5 4 3 7 9 13
15 14 13 12 12 11 11 11 11 11 10 10 10 10 10 12 10 10 9 8 3 16 9 7 6 7 3 3 3 4 5 8 4 5 4 3 5 5 7 11 5 9 7 9 7
17 15 13 13 12 11 11 11 11 10 10 10 10 10 8 9 4 3 2 11 10 13 6 7 10 4 4 4 4 5 6 5 6 9 7 8 10 3 4 9 7 10 13 13 14
19 16 15 13 12 11 11 11 10 9 10 10 9 8 6 1 2 2 3 14 15 11 10 8 5 5 5 7 5 5 7 7 3 4 4 7 3 5 9 10 12 12 11 12 12
22 19 16 14 12 11 10 10 9 9 9 8 7 5 2 2 6 5 9 17 13 11 9 6 6 4 4 4 6 4 3 4 5 8 6 4 9 6 8 12 11 8 5 4 9
24 22 19 16 13 11 10 8 7 6 8 7 4 1 1 4 1 2 14 14 11 8 8 5 4 3 5 3 4 4 4 7 6 6 4 7 9 5 5 7 10 2 3 4 6
26 23 21 18 14 11 9 7 5 5 6 4 1 1 2 9 4 1 12 8 12 6 4 3 3 2 5 4 2 2 4 6 10 8 6 3 13 8 7 3 6 8 7 7 8
31 28 23 20 15 11 8 7 6 5 4 2 4 1 6 2 4 5 14 7 8 9 2 2 3 3 1 6 3 3 2 5 2 2 2 7 17 10 4 2 4 7 8 8 10
32 30 26 24 17 13 10 10 9 5 2 3 3 2 6 3 5 9 16 7 9 6 4 1 1 2 3 2 3 1 7 5 5 2 3 4 3 10 4 4 7 6 7 9 11
33 32 30 25 25 14 10 5 6 8 5 4 3 4 6 2 4 8 13 7 3 5 4 3 2 3 3 5 6 3 3 3 6 1 7 14 14 12 15 11 11 10 9 8 8
33 34 33 26 28 17 3 3 2 2 5 7 5 3 4 4 2 5 8 9 2 2 6 2 6 11 11 9 5 3 5 10 11 11 6 13 13 13 15 11 12 13 11 10 10
33 34 34 28 27 12 4 3 2 2 7 14 15 10 11 2 2 4 13 9 6 8 4 4 11 12 7 6 8 7 10 11 11 8 7 13 14 13 12 11 14 15 13 13 11
34 34 36 28 21 1 6 5 5 4 4 4 5 4 5 12 6 5 12 8 5 8 9 11 5 5 9 9 8 9 11 8 11 12 7 11 17 12 10 7 11 14 15 13 14
35 35 31 30 3 2 4 5 5 4 3 3 2 1 5 6 5 10 13 8 4 11 8 9 11 12 9 10 9 13 9 14 12 10 13 3 14 18 13 13 15 16 14 15 16
38 36 31 20 8 4 4 1 3 3 3 2 3 7 3 5 1 4 6 4 10 6 6 4 3 5 9 14 10 10 5 8 11 12 12 16 14 9 5 10 14 15 16 12 11
43 38 24 3 8 6 7 1 4 0 2 5 3 2 5 4 2 3 6 2 2 6 5 13 2 4 6 2 12 3 11 12 4 6 13 16 14 11 12 16 11 7 5 7 9
45 19 5 6 0 4 1 4 3 1 8 7 5 4 3 2 3 2 4 9 9 5 9 12 17 14 8 14 14 12 11 8 9 10 15 13 14 14 8 10 9 9 7 9 10
28 13 10 5 1 4 2 2 4 4 6 9 10 7 6 12 7 8 2 3 3 7 7 7 9 4 5 11 11 8 8 9 14 13 18 9 9 7 6 4 3 3 4 10 14
15 8 12 15 3 1 1 4 2 2 5 8 7 8 6 7 5 9 11 5 3 2 3 3 6 3 1 1 1 4 10 11 19 19 14 13 16 11 8 4 1 3 8 13 16
8 4 10 11 7 1 3 5 5 3 3 7 3 6 4 7 4 8 2 9 9 6 5 7 14 8 12 5 10 8 4 8 5 8 15 10 9 8 10 4 5 8 14 17 17
4 2 14 9 3 3 3 3 4 6 2 1 4 4 6 5 6 7 6 12 5 9 13 6 4 8 6 7 14 13 15 15 6 9 7 14 10 1 5 6 9 13 14 16 17
4 2 16 9 2 2 2 3 5 5 7 2 7 10 11 7 6 7 10 8 7 7 7 4 4 8 14 12 16 15 16 11 5 6 5 10 12 3 6 7 10 11 11 11 14
3 3 11 7 2 3 3 3 3 4 5 4 3 4 3 1 5 6 5 1 5 3 2 3 4 4 4 4 2 5 6 7 6 1 8 8 6 4 6 16 16 13 9 9 11
2 2 4 5 3 3 4 3 3 7 3 4 3 2 2 4 6 4 5 4 5 7 8 2 5 11 13 16 3 4 3 5 3 3 5 8 19 19 17 12 12 9 10 11 13
4 2 1 3 5 4 2 3 3 4 3 3 0 1 3 4 4 7 6 5 8 7 5 4 4 7 13 14 13 15 18 17 16 17 13 21 22 21 17 9 9 11 11 14 16
2 2 1 2 2 4 1 1 3 1 3 4 5 5 2 3 6 13 18 14 8 5 7 7 5 3 9 13 15 18 21 22 21 20 21 20 23 11 4 6 10 11 13 17 18
2 2 1 1 2 3 2 2 4 9 4 6 7 9 10 14 11 13 14 16 15 11 8 5 5 2 7 8 13 13 10 14 15 12 9 12 13 4 10 12 13 16 16 18 17
Wind_Direction
336 329 322 315 312 309 307 305 307 309 308 312 315 318 315 316 313 288 241 222 183 178 150 126 111 114 92 104 95 140 181 215 214 198 225 187 14 329 310 284 300 263 302 313 322
344 336 327 319 312 305 302 300 300 300 304 308 311 312 319 325 317 266 250 198 154 155 156 153 142 135 102 123 134 189 209 214 208 210 252 294 303 322 314 306 277 289 284 312 333
347 341 332 322 313 305 299 296 296 299 300 306 312 314 320 327 284 247 279 185 155 167 158 138 137 144 144 156 169 167 224 205 229 225 250 279 282 235 273 290 281 283 307 319 319
349 343 338 327 316 307 300 295 295 296 301 306 312 314 328 287 156 341 255 167 162 155 143 137 141 142 150 166 173 205 228 218 230 225 243 257 264 250 226 257 289 273 289 295 300
353 348 341 336 322 311 300 294 291 293 300 305 311 320 0 265 260 356 145 160 166 164 160 155 157 151 164 158 154 217 252 215 249 278 249 251 250 249 229 257 281 295 268 271 295
357 352 347 340 333 318 307 303 307 309 307 303 302 23 240 249 205 153 156 158 169 163 166 168 170 173 118 149 206 182 263 293 297 280 277 273 276 181 244 286 295 282 291 285 289
7 2 358 352 341 335 322 307 299 301 305 301 203 126 251 243 180 148 176 175 170 165 159 189 154 180 145 146 129 156 274 293 263 268 256 212 263 240 260 269 273 308 311 308 300
14 12 8 2 352 342 331 315 295 281 291 263 145 161 254 252 227 197 181 176 194 210 184 216 169 93 305 110 69 213 221 261 147 292 273 215 270 292 211 194 286 302 303 304 291
7 7 5 4 349 331 325 311 285 252 184 175 158 231 268 267 247 214 185 177 182 201 214 213 101 75 137 178 260 64 262 258 297 300 245 237 290 311 248 306 285 274 284 292 297
358 359 358 355 352 329 326 352 89 122 116 163 263 284 250 164 177 173 188 163 146 146 133 147 103 174 140 195 246 195 214 221 270 272 310 292 281 277 285 286 285 294 284 277 287
350 348 349 345 345 330 311 133 190 177 206 216 185 250 290 307 215 177 167 152 109 100 197 86 216 222 223 217 237 244 260 272 275 278 284 278 283 280 285 290 276 284 273 266 266
344 343 341 339 333 322 196 204 220 303 288 231 246 260 253 343 333 157 161 175 179 202 145 206 243 243 223 207 219 235 265 274 279 274 207 289 284 283 271 266 266 268 270 258 267
342 341 338 335 327 286 195 215 191 304 279 285 196 212 208 181 222 227 181 155 181 198 205 232 236 99 205 217 227 233 246 260 266 300 245 276 280 267 263 245 260 252 253 270 269
339 338 335 333 324 322 237 162 239 182 308 272 233 174 154 165 205 198 184 170 183 219 201 250 264 244 233 243 223 264 232 252 272 293 288 345 287 278 277 260 248 258 258 258 265
337 334 330 324 281 233 151 122 135 170 332 42 80 156 159 200 92 162 178 171 201 174 188 216 198 175 212 244 181 256 186 247 271 273 284 274 274 267 230 254 257 259 266 292 321
337 334 323 289 206 223 185 63 146 101 286 8 114 125 154 245 3 108 175 155 186 206 240 262 222 244 260 229 201 273 292 285 259 272 255 262 250 266 257 258 276 267 314 347 343
342 342 312 173 137 114 164 172 97 174 333 4 343 323 239 233 238 267 170 191 214 198 233 261 253 254 247 270 257 252 264 277 265 246 269 283 265 267 261 234 253 294 338 354 344
358 35 56 18 252 320 124 140 99 332 351 346 349 36 68 22 33 29 78 233 219 250 273 268 271 215 175 219 260 231 230 253 271 277 282 250 255 253 234 268 115 109 360 349 345
6 26 30 15 68 1 116 66 110 358 337 350 28 26 2 12 33 19 355 352 12 151 270 281 243 298 331 31 208 253 247 279 270 270 270 248 261 262 238 223 320 16 360 350 340
351 6 25 349 342 352 83 114 151 58 45 36 318 348 339 2 30 18 265 267 327 338 27 257 279 254 269 305 251 237 332 268 235 277 267 249 258 259 259 204 11 348 343 341 340
12 64 357 354 335 58 90 88 121 88 105 158 235 248 270 303 301 291 278 296 346 326 314 314 258 248 304 241 266 277 256 242 283 267 270 282 272 52 132 74 355 343 346 347 344
0 67 351 7 31 27 65 346 342 16 27 271 231 225 235 244 238 221 231 222 248 285 295 339 298 256 252 266 275 281 264 234 226 205 238 276 268 104 92 2 353 348 344 340 338
35 318 350 12 63 42 351 354 355 33 18 356 320 21 10 304 266 302 297 192 79 328 2 349 223 277 259 230 98 261 283 280 253 171 223 249 261 146 282 325 333 334 330 326 330
18 28 14 42 29 43 6 9 4 360 94 3 298 73 290 267 249 275 267 287 279 278 310 4 248 251 265 290 263 264 243 258 213 248 276 257 283 286 300 305 303 310 318 321 324
16 67 29 15 44 25 320 340 350 349 354 20 74 1 247 262 259 250 265 272 286 274 210 207 242 249 271 274 268 266 265 257 248 255 260 280 283 290 304 295 295 302 305 311 319
41 359 89 111 341 356 66 97 319 2 319 304 275 314 275 239 262 290 294 283 258 268 212 188 272 254 278 276 273 279 270 259 257 264 266 271 276 305 259 269 284 298 305 309 314
53 84 352 348 357 327 356 33 334 333 278 251 314 315 289 281 293 283 276 272 252 239 246 212 243 256 270 313 311 281 275 254 251 247 257 261 288 277 286 294 305 307 307 306 307